﻿測定場所 (Monitoring sites),日付 (Measurement date),時間 (Measurement time),線量率 最大値 (max) μGy/h,線量率 最小値 (min) μGy/h,線量率 平均値 (average) μGy/h,
大田 (Ota),2020-07-05,23:01～24:00,0.0352,0.0306,0.0326,
大田 (Ota),2020-07-05,22:01～23:00,0.0357,0.0309,0.0326,
大田 (Ota),2020-07-05,21:01～22:00,0.0347,0.0311,0.0327,
大田 (Ota),2020-07-05,20:01～21:00,0.0350,0.0303,0.0327,
大田 (Ota),2020-07-05,19:01～20:00,0.0348,0.0309,0.0330,
大田 (Ota),2020-07-05,18:01～19:00,0.0367,0.0303,0.0327,
大田 (Ota),2020-07-05,17:01～18:00,0.0348,0.0305,0.0329,
大田 (Ota),2020-07-05,16:01～17:00,0.0351,0.0315,0.0331,
大田 (Ota),2020-07-05,15:01～16:00,0.0368,0.0318,0.0343,
大田 (Ota),2020-07-05,14:01～15:00,0.0441,0.0334,0.0384,
大田 (Ota),2020-07-05,13:01～14:00,0.0535,0.0414,0.0476,
大田 (Ota),2020-07-05,12:01～13:00,0.0507,0.0414,0.0458,
大田 (Ota),2020-07-05,11:01～12:00,0.0491,0.0371,0.0440,
大田 (Ota),2020-07-05,10:01～11:00,0.0412,0.0317,0.0351,
大田 (Ota),2020-07-05,09:01～10:00,0.0348,0.0311,0.0328,
大田 (Ota),2020-07-05,08:01～09:00,0.0348,0.0306,0.0327,
大田 (Ota),2020-07-05,07:01～08:00,0.0355,0.0307,0.0325,
大田 (Ota),2020-07-05,06:01～07:00,0.0347,0.0311,0.0328,
大田 (Ota),2020-07-05,05:01～06:00,0.0347,0.0311,0.0326,
大田 (Ota),2020-07-05,04:01～05:00,0.0343,0.0306,0.0325,
大田 (Ota),2020-07-05,03:01～04:00,0.0347,0.0311,0.0327,
大田 (Ota),2020-07-05,02:01～03:00,0.0345,0.0302,0.0322,
大田 (Ota),2020-07-05,01:01～02:00,0.0353,0.0298,0.0323,
大田 (Ota),2020-07-05,00:01～01:00,0.0343,0.0300,0.0321,
大田 (Ota),2020-07-04,23:01～24:00,0.0341,0.0299,0.0321,
大田 (Ota),2020-07-04,22:01～23:00,0.0344,0.0301,0.0321,
大田 (Ota),2020-07-04,21:01～22:00,0.0342,0.0293,0.0324,
大田 (Ota),2020-07-04,20:01～21:00,0.0342,0.0300,0.0321,
大田 (Ota),2020-07-04,19:01～20:00,0.0347,0.0302,0.0322,
大田 (Ota),2020-07-04,18:01～19:00,0.0335,0.0297,0.0320,
大田 (Ota),2020-07-04,17:01～18:00,0.0344,0.0303,0.0322,
大田 (Ota),2020-07-04,16:01～17:00,0.0339,0.0304,0.0324,
大田 (Ota),2020-07-04,15:01～16:00,0.0340,0.0305,0.0322,
大田 (Ota),2020-07-04,14:01～15:00,0.0341,0.0301,0.0323,
大田 (Ota),2020-07-04,13:01～14:00,0.0344,0.0300,0.0320,
大田 (Ota),2020-07-04,12:01～13:00,0.0339,0.0302,0.0321,
大田 (Ota),2020-07-04,11:01～12:00,0.0340,0.0302,0.0320,
大田 (Ota),2020-07-04,10:01～11:00,0.0343,0.0295,0.0321,
大田 (Ota),2020-07-04,09:01～10:00,0.0340,0.0301,0.0323,
大田 (Ota),2020-07-04,08:01～09:00,0.0357,0.0311,0.0331,
大田 (Ota),2020-07-04,07:01～08:00,0.0369,0.0311,0.0334,
大田 (Ota),2020-07-04,06:01～07:00,0.0356,0.0313,0.0332,
大田 (Ota),2020-07-04,05:01～06:00,0.0390,0.0317,0.0345,
大田 (Ota),2020-07-04,04:01～05:00,0.0390,0.0340,0.0362,
大田 (Ota),2020-07-04,03:01～04:00,0.0386,0.0330,0.0355,
大田 (Ota),2020-07-04,02:01～03:00,0.0402,0.0333,0.0363,
大田 (Ota),2020-07-04,01:01～02:00,0.0397,0.0342,0.0365,
大田 (Ota),2020-07-04,00:01～01:00,0.0353,0.0316,0.0337,
大田 (Ota),2020-07-03,23:01～24:00,0.0362,0.0323,0.0339,
大田 (Ota),2020-07-03,22:01～23:00,0.0366,0.0320,0.0345,
大田 (Ota),2020-07-03,21:01～22:00,0.0362,0.0326,0.0345,
大田 (Ota),2020-07-03,20:01～21:00,0.0366,0.0319,0.0347,
大田 (Ota),2020-07-03,19:01～20:00,0.0360,0.0320,0.0342,
大田 (Ota),2020-07-03,18:01～19:00,0.0362,0.0321,0.0340,
大田 (Ota),2020-07-03,17:01～18:00,0.0371,0.0331,0.0350,
大田 (Ota),2020-07-03,16:01～17:00,0.0391,0.0339,0.0359,
大田 (Ota),2020-07-03,15:01～16:00,0.0397,0.0341,0.0362,
大田 (Ota),2020-07-03,14:01～15:00,0.0393,0.0319,0.0353,
大田 (Ota),2020-07-03,13:01～14:00,0.0352,0.0315,0.0333,
大田 (Ota),2020-07-03,12:01～13:00,0.0362,0.0310,0.0331,
大田 (Ota),2020-07-03,11:01～12:00,0.0357,0.0313,0.0333,
大田 (Ota),2020-07-03,10:01～11:00,0.0357,0.0313,0.0330,
大田 (Ota),2020-07-03,09:01～10:00,0.0359,0.0311,0.0331,
大田 (Ota),2020-07-03,08:01～09:00,0.0348,0.0308,0.0330,
大田 (Ota),2020-07-03,07:01～08:00,0.0352,0.0312,0.0332,
大田 (Ota),2020-07-03,06:01～07:00,0.0357,0.0307,0.0331,
大田 (Ota),2020-07-03,05:01～06:00,0.0345,0.0311,0.0329,
大田 (Ota),2020-07-03,04:01～05:00,0.0347,0.0313,0.0331,
大田 (Ota),2020-07-03,03:01～04:00,0.0357,0.0312,0.0332,
大田 (Ota),2020-07-03,02:01～03:00,0.0361,0.0299,0.0332,
大田 (Ota),2020-07-03,01:01～02:00,0.0355,0.0310,0.0333,
大田 (Ota),2020-07-03,00:01～01:00,0.0357,0.0305,0.0329,
大田 (Ota),2020-07-02,23:01～24:00,0.0355,0.0304,0.0329,
大田 (Ota),2020-07-02,22:01～23:00,0.0356,0.0304,0.0332,
大田 (Ota),2020-07-02,21:01～22:00,0.0351,0.0314,0.0333,
大田 (Ota),2020-07-02,20:01～21:00,0.0347,0.0316,0.0331,
大田 (Ota),2020-07-02,19:01～20:00,0.0350,0.0313,0.0330,
大田 (Ota),2020-07-02,18:01～19:00,0.0350,0.0313,0.0331,
大田 (Ota),2020-07-02,17:01～18:00,0.0350,0.0314,0.0333,
大田 (Ota),2020-07-02,16:01～17:00,0.0350,0.0305,0.0330,
大田 (Ota),2020-07-02,15:01～16:00,0.0355,0.0312,0.0332,
大田 (Ota),2020-07-02,14:01～15:00,0.0358,0.0311,0.0331,
大田 (Ota),2020-07-02,13:01～14:00,0.0347,0.0310,0.0331,
大田 (Ota),2020-07-02,12:01～13:00,0.0347,0.0306,0.0329,
大田 (Ota),2020-07-02,11:01～12:00,0.0344,0.0307,0.0327,
大田 (Ota),2020-07-02,10:01～11:00,0.0348,0.0315,0.0331,
大田 (Ota),2020-07-02,09:01～10:00,0.0346,0.0307,0.0327,
大田 (Ota),2020-07-02,08:01～09:00,0.0341,0.0301,0.0325,
大田 (Ota),2020-07-02,07:01～08:00,0.0347,0.0308,0.0328,
大田 (Ota),2020-07-02,06:01～07:00,0.0347,0.0302,0.0326,
大田 (Ota),2020-07-02,05:01～06:00,0.0341,0.0305,0.0323,
大田 (Ota),2020-07-02,04:01～05:00,0.0356,0.0306,0.0326,
大田 (Ota),2020-07-02,03:01～04:00,0.0341,0.0299,0.0323,
大田 (Ota),2020-07-02,02:01～03:00,0.0345,0.0297,0.0326,
大田 (Ota),2020-07-02,01:01～02:00,0.0373,0.0317,0.0344,
大田 (Ota),2020-07-02,00:01～01:00,0.0438,0.0347,0.0376,
大田 (Ota),2020-07-01,23:01～24:00,0.0368,0.0315,0.0340,
大田 (Ota),2020-07-01,22:01～23:00,0.0347,0.0313,0.0330,
大田 (Ota),2020-07-01,21:01～22:00,0.0367,0.0322,0.0345,
大田 (Ota),2020-07-01,20:01～21:00,0.0372,0.0331,0.0353,
大田 (Ota),2020-07-01,19:01～20:00,0.0368,0.0320,0.0345,
大田 (Ota),2020-07-01,18:01～19:00,0.0361,0.0300,0.0329,
大田 (Ota),2020-07-01,17:01～18:00,0.0352,0.0310,0.0326,
大田 (Ota),2020-07-01,16:01～17:00,0.0342,0.0313,0.0327,
大田 (Ota),2020-07-01,15:01～16:00,0.0356,0.0305,0.0329,
大田 (Ota),2020-07-01,14:01～15:00,0.0363,0.0325,0.0343,
大田 (Ota),2020-07-01,13:01～14:00,0.0363,0.0321,0.0340,
大田 (Ota),2020-07-01,12:01～13:00,0.0377,0.0327,0.0345,
大田 (Ota),2020-07-01,11:01～12:00,0.0370,0.0328,0.0351,
大田 (Ota),2020-07-01,10:01～11:00,0.0363,0.0306,0.0339,
大田 (Ota),2020-07-01,09:01～10:00,0.0351,0.0312,0.0329,
大田 (Ota),2020-07-01,08:01～09:00,0.0339,0.0301,0.0323,
大田 (Ota),2020-07-01,07:01～08:00,0.0343,0.0307,0.0324,
大田 (Ota),2020-07-01,06:01～07:00,0.0343,0.0301,0.0324,
大田 (Ota),2020-07-01,05:01～06:00,0.0346,0.0300,0.0325,
大田 (Ota),2020-07-01,04:01～05:00,0.0354,0.0313,0.0331,
大田 (Ota),2020-07-01,03:01～04:00,0.0366,0.0311,0.0338,
大田 (Ota),2020-07-01,02:01～03:00,0.0378,0.0332,0.0354,
大田 (Ota),2020-07-01,01:01～02:00,0.0360,0.0304,0.0334,
大田 (Ota),2020-07-01,00:01～01:00,0.0340,0.0302,0.0323,
大田 (Ota),2020-06-30,23:01～24:00,0.0348,0.0310,0.0329,
大田 (Ota),2020-06-30,22:01～23:00,0.0353,0.0316,0.0334,
大田 (Ota),2020-06-30,21:01～22:00,0.0352,0.0314,0.0335,
大田 (Ota),2020-06-30,20:01～21:00,0.0361,0.0312,0.0336,
大田 (Ota),2020-06-30,19:01～20:00,0.0348,0.0310,0.0327,
大田 (Ota),2020-06-30,18:01～19:00,0.0348,0.0311,0.0329,
大田 (Ota),2020-06-30,17:01～18:00,0.0366,0.0323,0.0339,
大田 (Ota),2020-06-30,16:01～17:00,0.0372,0.0327,0.0355,
大田 (Ota),2020-06-30,15:01～16:00,0.0379,0.0323,0.0350,
大田 (Ota),2020-06-30,14:01～15:00,0.0360,0.0308,0.0334,
大田 (Ota),2020-06-30,13:01～14:00,0.0345,0.0314,0.0332,
大田 (Ota),2020-06-30,12:01～13:00,0.0356,0.0314,0.0334,
大田 (Ota),2020-06-30,11:01～12:00,0.0357,0.0316,0.0338,
大田 (Ota),2020-06-30,10:01～11:00,0.0364,0.0324,0.0341,
大田 (Ota),2020-06-30,09:01～10:00,0.0360,0.0323,0.0339,
大田 (Ota),2020-06-30,08:01～09:00,0.0354,0.0310,0.0331,
大田 (Ota),2020-06-30,07:01～08:00,0.0357,0.0312,0.0330,
大田 (Ota),2020-06-30,06:01～07:00,0.0360,0.0314,0.0333,
大田 (Ota),2020-06-30,05:01～06:00,0.0356,0.0319,0.0333,
大田 (Ota),2020-06-30,04:01～05:00,0.0353,0.0311,0.0333,
大田 (Ota),2020-06-30,03:01～04:00,0.0358,0.0314,0.0337,
大田 (Ota),2020-06-30,02:01～03:00,0.0355,0.0312,0.0336,
大田 (Ota),2020-06-30,01:01～02:00,0.0357,0.0319,0.0336,
大田 (Ota),2020-06-30,00:01～01:00,0.0350,0.0308,0.0334,
大田 (Ota),2020-06-29,23:01～24:00,0.0352,0.0314,0.0334,
大田 (Ota),2020-06-29,22:01～23:00,0.0349,0.0315,0.0337,
大田 (Ota),2020-06-29,21:01～22:00,0.0355,0.0307,0.0335,
大田 (Ota),2020-06-29,20:01～21:00,0.0360,0.0309,0.0332,
大田 (Ota),2020-06-29,19:01～20:00,0.0349,0.0314,0.0331,
大田 (Ota),2020-06-29,18:01～19:00,0.0352,0.0306,0.0329,
大田 (Ota),2020-06-29,17:01～18:00,0.0347,0.0312,0.0330,
大田 (Ota),2020-06-29,16:01～17:00,0.0355,0.0312,0.0331,
大田 (Ota),2020-06-29,15:01～16:00,0.0355,0.0306,0.0333,
大田 (Ota),2020-06-29,14:01～15:00,0.0354,0.0314,0.0332,
大田 (Ota),2020-06-29,13:01～14:00,0.0349,0.0308,0.0330,
大田 (Ota),2020-06-29,12:01～13:00,0.0343,0.0307,0.0329,
大田 (Ota),2020-06-29,11:01～12:00,0.0362,0.0313,0.0331,
大田 (Ota),2020-06-29,10:01～11:00,0.0353,0.0298,0.0328,
大田 (Ota),2020-06-29,09:01～10:00,0.0350,0.0309,0.0329,
大田 (Ota),2020-06-29,08:01～09:00,0.0351,0.0311,0.0332,
大田 (Ota),2020-06-29,07:01～08:00,0.0347,0.0313,0.0330,
大田 (Ota),2020-06-29,06:01～07:00,0.0348,0.0310,0.0332,
大田 (Ota),2020-06-29,05:01～06:00,0.0346,0.0304,0.0330,
大田 (Ota),2020-06-29,04:01～05:00,0.0349,0.0315,0.0333,
大田 (Ota),2020-06-29,03:01～04:00,0.0357,0.0307,0.0329,
大田 (Ota),2020-06-29,02:01～03:00,0.0345,0.0308,0.0328,
大田 (Ota),2020-06-29,01:01～02:00,0.0350,0.0309,0.0331,
大田 (Ota),2020-06-29,00:01～01:00,0.0353,0.0311,0.0329,
